Location: Rancho Del Sol Observatory
(38.7214°N, 120.6350°W)
Time: 12:47:33
(UTC-08:00)

Courier 1B Rocket - Pass Details

Date: 04 February 2020
Orbit: 920 x 1202 km, 28.2° (Epoch: 27 February)

Event Time Altitude Azimuth Distance (km) Brightness Sun altitude
Rises 09:02:59 0° 251° (WSW) 4,088 8.0 18.8°
Reaches altitude 10° 09:06:04 10° 243° (WSW) 3,128 7.5 19.3°
Maximum altitude 09:13:07 38° 179° (S) 1,727 7.2 20.3°
Drops below altitude 10° 09:20:01 10° 114° (ESE) 3,047 9.1 21.3°
Sets 09:22:58 0° 107° (ESE) 3,973 9.2 21.7°
